Location: Burland Observatory
(39.4088°N, 105.4217°W)
Time: 02:57:13
(UTC-07:00)

S-56A Canister/Altair - Pass Details

Date: 18 December 2019
Orbit: 634 x 2498 km, 38.9° (Epoch: 18 January)

Event Time Altitude Azimuth Distance (km) Brightness Sun altitude
Rises 06:20:27 0° 214° (SW) 4,486 11.3 -10.6°
Reaches altitude 10° 06:23:18 10° 207° (SSW) 3,747 11.0 -10.0°
Maximum altitude 06:32:42 42° 140° (SE) 2,631 10.8 -8.4°
Drops below altitude 10° 06:45:24 10° 77° (ENE) 5,029 12.5 -6.1°
Sets 06:49:52 0° 71° (ENE) 6,141 12.9 -5.4°
